Regional Weather Roundup
Issued by NWS Charleston, WV

Home | Current Version | Previous Version | Graphics & Text | Print | Product List | Glossary On
Versions: 1 2 3 4 5 6 7 8 9 10 11 12 13 14 15 16 17 18 19 20 21 22 23 24 25 26 27 28 29 30 31 32 33 34 35 36 37 38 39 40 41 42 43 44 45 46 47 48 49 50
000
ASUS41 KRLX 251310
RWRRLX
West Virginia Regional Weather Roundup
National Weather Service Charleston WV
800 AM EST TUE NOV 25 2014

Note: "fair" indicates few or no clouds below 12,000 feet with no
significant weather and/or obstructions to visibility.

WVZ003-251400-
Northern Panhandle of West Virginia

CITY           SKY/WX    TMP DP  RH WIND       PRES   REMARKS
WHEELING       CLEAR     38  30  73 SW13      30.00R
$$

WVZ009-251400-
Northwest West Virginia

CITY           SKY/WX    TMP DP  RH WIND       PRES   REMARKS
PARKERSBURG    CLEAR     38  30  73 SW6       30.08R
$$

WVZ006-251400-
Western West Virginia

CITY           SKY/WX    TMP DP  RH WIND       PRES   REMARKS
HUNTINGTON     CLEAR     37  30  75 S6        30.06R
$$

WVZ015-251400-
West Central West Virginia

CITY           SKY/WX    TMP DP  RH WIND       PRES   REMARKS
CHARLESTON     PTCLDY    38  31  76 SE3       30.07R
$$

WVZ022-031-251400-
North Central West Virginia

CITY           SKY/WX    TMP DP  RH WIND       PRES   REMARKS
CLARKSBURG     MOCLDY    39  31  72 S7        30.05R
MORGANTOWN     MOCLDY    41  28  60 S7        30.04R
$$

WVZ025-035-042-045-251400-
Southern West Virginia

CITY           SKY/WX    TMP DP  RH WIND       PRES   REMARKS
BECKLEY        MOCLDY    36  31  82 S5        30.06R
LOGAN            N/A     41  32  70 CALM      30.07R
BLUEFIELD      PTCLDY    39  31  72 W7        30.07R
LEWISBURG      MOCLDY    40  32  73 CALM      30.06S
$$

WVZ047-251400-
Northern Mountains of West Virginia

CITY           SKY/WX    TMP DP  RH WIND       PRES   REMARKS
ELKINS         PTCLDY    39  29  67 S6        30.05R
$$

WVZ052-251400-
Eastern Panhandle of West Virginia

CITY           SKY/WX    TMP DP  RH WIND       PRES   REMARKS
MARTINSBURG    CLOUDY    50  28  42 W9        30.03R
PETERSBURG     MOCLDY    46  24  40 W7        30.05R
$$



USA.gov is the U.S. government's official web portal to all federal, state and local government web resources and services.